Location: Gazon
(48.1318°N, 1.2708°W)
Time: 02:37:44
(UTC+00:00)

ATLAS 3B R/B - Pass Details

Date: 18 September 2020
Orbit: 1016 x 1179 km, 63.8° (Epoch: 28 October)

Event Time Altitude Azimuth Distance (km) Brightness Sun altitude
Rises 19:29:24 0° 313° (NW) 3,796 6.9 -13.7°
Reaches altitude 10° 19:32:26 10° 325° (NW) 2,861 5.8 -14.2°
Maximum altitude 19:38:09 28° 23° (NNE) 1,886 4.0 -15.1°
Enters shadow 19:42:49 15° 74° (ENE) 2,613 4.3 -15.9°
